This is the latest recevied weather packets stored in our database for station/object KC3ROS. If no packets are shown the sender has not sent any weather packets the latest 10 day(s).
| Time | Temp. | Humidity | Pressure | Rain* | Wind** | Luminosity | Snow |
|---|---|---|---|---|---|---|---|
| 1777660596 | 7.78° C | 95% | 1010.8 hPa | 1.78 mm | - | 65 W/m² | - |
| 1777660293 | 7.22° C | 94% | 1010.8 hPa | 2.29 mm | - | 95 W/m² | - |
| 1777659990 | 7.78° C | 94% | 1010.7 hPa | 2.29 mm | - | 75 W/m² | - |
| 1777659686 | 7.78° C | 92% | 1010.6 hPa | 1.27 mm | - | 81 W/m² | - |
| 1777659384 | 7.78° C | 91% | 1010.6 hPa | 0 mm | - | 75 W/m² | - |
| 1777659080 | 7.78° C | 91% | 1010.7 hPa | 0.51 mm | - | 103 W/m² | - |
| 1777658779 | 8.33° C | 92% | 1010.6 hPa | 0.51 mm | - | 87 W/m² | - |
| 1777658474 | 8.33° C | 90% | 1010.5 hPa | 0.51 mm | - | 104 W/m² | - |
| 1777658171 | 8.33° C | 88% | 1010.6 hPa | 0.51 mm | - | 122 W/m² | - |
| 1777657868 | 8.33° C | 88% | 1010.6 hPa | 0 mm | - | 131 W/m² | - |
| 1777657565 | 8.33° C | 88% | 1010.6 hPa | 1.27 mm | - | 205 W/m² | - |
| 1777657262 | 8.33° C | 86% | 1010.4 hPa | 0.51 mm | - | 175 W/m² | - |
| 1777656959 | 8.33° C | 83% | 1010.6 hPa | 0 mm | - | 190 W/m² | - |
| 1777656656 | 8.33° C | 81% | 1010.5 hPa | 0.51 mm | - | 134 W/m² | - |
| 1777656352 | 8.33° C | 82% | 1010.7 hPa | 0.51 mm | - | 129 W/m² | - |
| 1777656047 | 8.89° C | 81% | 1010.6 hPa | 0 mm | - | 119 W/m² | - |
| 1777655744 | 9.44° C | 81% | 1010.5 hPa | 0 mm | - | 92 W/m² | - |
| 1777655441 | 10° C | 78% | 1010.7 hPa | 0 mm | - | 129 W/m² | - |
| 1777655137 | 10° C | 77% | 1010.8 hPa | 0 mm | - | 160 W/m² | - |
| 1777654835 | 10° C | 77% | 1010.4 hPa | 0 mm | - | 154 W/m² | - |
| 1777654532 | 10.56° C | 76% | 1010.3 hPa | 0 mm | - | 148 W/m² | - |
| 1777654230 | 10° C | 77% | 1010.6 hPa | 0 mm | - | 199 W/m² | - |
| 1777653927 | 9.44° C | 77% | 1010.6 hPa | 0 mm | - | 226 W/m² | - |
| 1777653624 | 9.44° C | 78% | 1010.7 hPa | 0 mm | - | 147 W/m² | - |
| 1777653320 | 10° C | 79% | 1011.1 hPa | 0 mm | - | 118 W/m² | - |
* Rain latest hour (hover to see other rain measurements)
** Current wind speed in m/s (hover to see current wind gust speed)